Location: Home
(42.5358°N, 72.7383°W)
Time: 09:57:59
(UTC-05:00)

S-56A Canister/Altair - Pass Details

Date: 30 November 2021
Orbit: 634 x 2499 km, 38.9° (Epoch: 22 January)

Event Time Altitude Azimuth Distance (km) Brightness Sun altitude
Rises 06:24:30 0° 272° (W) 3,106 - -6.7°
Exits shadow 06:25:54 - 266° (W) 2,608 9.7 -6.5°
Reaches altitude 10° 06:27:37 10° 253° (WSW) 2,063 9.3 -6.2°
Maximum altitude 06:30:42 18° 210° (SSW) 1,555 9.1 -5.7°
Drops below altitude 10° 06:33:43 10° 167° (SSE) 2,023 10.3 -5.2°
Sets 06:36:44 0° 147° (SSE) 3,020 11.7 -4.7°
